x

Muskegon County Airport (72636) Weather Station

11:55am - Fri 21st Nov 2014 All times are CST. -6 hours from GMT.

  • Wind
    12mph
  • Air Temp 27°f
  • Sea Pressure 1030.1mb
  • Muskegon County Airport
  • Muskegon County Airport

More Historic Weather Station data

Upgrade to MSW Pro to gain access to the past 30 days of data for over 8000 Wavebouys and Weather Stations around the globe.

Join Pro

Comparision Forecast

View Surf forecast
   
Fri 11/21 11:55am 12
mph
1030.1mb 27f
11:45am 10
mph
1029.8mb 27f
11:20am 7
mph
1030.1mb 27f
10:55am 8
mph
1030.8mb 27f
9:55am 7
mph
1030.8mb 23f
8:55am 6
mph
1030.5mb 21f
7:55am 5
mph
1029.8mb 19f
6:55am 6
mph
1029.1mb 19f
5:55am 5
mph
1028.4mb 19f
4:55am 3
mph
1027.8mb 19f
3:55am 6
mph
1027.1mb 19f
2:55am  -  mph 1026.4mb 19f
1:55am 5
mph
1025.7mb 19f
12:55am 7
mph
1024.7mb 21f
Thu 11/20 11:55pm 12
mph
1024mb 19f
11:36pm 12
mph
1023.7mb 20f
10:55pm 14
mph
1023mb 19f
10:02pm 9
mph
1022mb 19f
9:55pm 12 24 mph 1022mb 19f
9:47pm 15
mph
1022mb 19f
9:36pm 15 22 mph 1021.7mb 20f
9:28pm 12
mph
1021.7mb 19f
9:20pm 17
mph
1021.7mb 19f
9:07pm 12
mph
1021.3mb 19f
9:00pm 14
mph
1021.3mb 19f
8:55pm 14
mph
1021.3mb 19f
8:33pm 16 22 mph 1020.7mb 21f
8:26pm 13 25 mph 1020.7mb 21f
8:17pm 18 28 mph 1020.3mb 21f
7:59pm 21 29 mph 1020.3mb 21f
7:55pm 18 29 mph 1020.3mb 21f
7:47pm 14
mph
1020.3mb 21f
7:45pm 12 27 mph 1020.3mb 21f
7:31pm 16 25 mph 1020mb 21f
7:27pm 18 29 mph 1019.6mb 21f
7:20pm 15 29 mph 1019.6mb 21f
6:58pm 21 27 mph 1019.3mb 23f
6:55pm 16 27 mph 1019.3mb 23f
6:36pm 17 27 mph 1019mb 23f
5:55pm 22 32 mph 1018.3mb 23f
4:55pm 18 27 mph 1017.6mb 25f
3:55pm 15 27 mph 1016.6mb 25f
3:52pm 17 27 mph 1016.6mb 25f
3:23pm 13 27 mph 1016.3mb 21f
2:55pm 17 25 mph 1015.9mb 23f
2:48pm 16 25 mph 1015.6mb 23f
2:20pm 17 27 mph 1015.6mb 21f
2:10pm 16 23 mph 1015.2mb 23f
2:03pm 15
mph
1015.2mb 21f
1:55pm 20 25 mph 1015.2mb 23f
1:52pm 15 25 mph 1015.2mb 23f
1:49pm 15 25 mph 1015.2mb 23f
1:35pm 16 25 mph 1014.9mb 23f
1:29pm 17 27 mph 1014.9mb 23f
1:20pm 18 28 mph 1014.6mb 23f
1:07pm 21 27 mph 1014.6mb 23f
12:55pm 22 30 mph 1014.6mb 23f
12:52pm 17 30 mph 1014.2mb 23f
12:23pm 20 29 mph 1014.2mb 23f
12:11pm 20 27 mph 1014.2mb 23f
11:55am 17 28 mph 1013.9mb 25f
11:11am 17 29 mph 1013.5mb 23f
10:55am 21 25 mph 1013.5mb 23f
10:50am 16 32 mph 1013.5mb 23f
10:19am 17 27 mph 1013.5mb 23f
10:06am 18 25 mph 1013.5mb 21f
9:55am 21 28 mph 1013.5mb 23f
8:55am 20 32 mph 1012.9mb 25f
8:50am 21 32 mph 1012.9mb 25f
8:31am 21 32 mph 1012.5mb 25f
8:24am 17 30 mph 1012.5mb 23f
8:15am 24 30 mph 1012.5mb 23f
8:08am 17 30 mph 1012.5mb 25f
7:55am 17 31 mph 1012.5mb 23f
7:49am 21 31 mph 1012.5mb 25f
7:12am 22 32 mph 1012.2mb 23f
7:02am 13 33 mph 1011.9mb 25f
6:55am 21 33 mph 1011.9mb 25f
6:28am 22 31 mph 1011.9mb 25f
6:14am 20 25 mph 1011.9mb 25f
6:03am 20 32 mph 1011.5mb 25f
5:55am 18 25 mph 1011.5mb 25f
5:30am 15 27 mph 1011.5mb 25f
5:15am 22 32 mph 1011.2mb 25f
4:55am 22 33 mph 1011.2mb 25f
4:24am 23 35 mph 1011.2mb 25f
4:16am 23 37 mph 1011.2mb 25f
4:14am 25 37 mph 1011.2mb 27f
4:05am 18 32 mph 1011.2mb 25f
4:03am 18 32 mph 1011.2mb 25f
3:55am 21 33 mph 1011.2mb 25f
3:28am 20 31 mph 1011.2mb 25f
3:16am 28 36 mph 1010.8mb 25f
3:11am 25 30 mph 1010.8mb 27f
3:03am 22 27 mph 1010.8mb 25f
2:58am 17 23 mph 1011.2mb 25f
2:55am 17 23 mph 1010.8mb 25f
2:45am 27 33 mph 1011.2mb 25f
1:55am 16 33 mph 1011.2mb 27f
1:03am 22 36 mph 1011.2mb 27f
12:55am 22 30 mph 1010.8mb 27f
12:49am 21 35 mph 1011.2mb 25f
12:12am 18 32 mph 1010.8mb 27f
12:07am 23 33 mph 1010.8mb 27f
Wed 11/19 11:55pm 22 35 mph 1010.8mb 27f
11:20pm 20 28 mph 1010.8mb 27f
10:55pm 20 31 mph 1010.5mb 27f
10:47pm 21 28 mph 1010.8mb 27f
10:29pm 18 32 mph 1010.8mb 25f
10:22pm 27 33 mph 1010.8mb 27f
9:55pm 21 32 mph 1010.5mb 25f
9:52pm 23 32 mph 1010.8mb 27f
9:14pm 22 32 mph 1010.5mb 27f
9:05pm 23 35 mph 1010.5mb 27f
8:55pm 24 33 mph 1010.2mb 27f
7:55pm 24 33 mph 1009.8mb 27f
6:55pm 22 37 mph 1009.5mb 27f
6:12pm 25 40 mph 1008.5mb 28f
5:55pm 27 36 mph 1008.1mb 27f
5:10pm 22 31 mph 1007.5mb 28f
4:55pm 21 36 mph 1007.5mb 27f
3:55pm 16 29 mph 1006.4mb 28f
3:45pm 20 33 mph 1006.1mb 27f
3:13pm 22 32 mph 1005.8mb 28f
3:03pm 16 30 mph 1005.8mb 28f
2:55pm 20 30 mph 1005.4mb 28f
2:13pm 28 32 mph 1004.7mb 28f
1:55pm 25 30 mph 1004.4mb 28f
12:55pm 16 23 mph 1004.4mb 28f
12:24pm 15 23 mph 1004.4mb 28f
12:17pm 14 25 mph 1004.4mb 28f
11:55am 14
mph
1004.7mb 25f
10:55am 10
mph
1005.8mb 21f
10:50am 13
mph
1005.8mb 21f
10:19am 17
mph
1006.4mb 21f
9:55am 12
mph
1007.1mb 21f
9:24am 14
mph
1008.1mb 19f
9:09am 14
mph
1008.1mb 19f
8:55am 14
mph
1008.1mb 19f
7:55am 13
mph
1009.5mb 19f
6:55am 16
mph
1010.2mb 19f
6:27am 13 23 mph 1010.8mb 19f
6:17am 16 23 mph 1010.8mb 19f
6:09am 15
mph
1010.8mb 19f
5:55am 18 24 mph 1011.2mb 19f
5:36am 15
mph
1011.5mb 20f
5:27am 17
mph
1011.5mb 21f
5:16am 18
mph
1011.5mb 21f
4:55am 17
mph
1011.5mb 27f
4:33am 14
mph
1012.2mb 27f
4:14am 16
mph
1012.5mb 25f
3:55am 13
mph
1012.9mb 25f
3:17am 12 21 mph 1013.9mb 25f
2:55am 13 21 mph 1014.2mb 25f
1:55am 16 23 mph 1015.2mb 21f
12:55am 14 22 mph 1015.9mb 21f
Tue 11/18 11:55pm 13 21 mph 1016.6mb 21f
10:53pm 16 22 mph 1016.9mb 21f
10:52pm 13 22 mph 1016.9mb 21f
10:31pm 14 22 mph 1016.9mb 21f
10:21pm 16 28 mph 1016.9mb 21f
10:19pm 18 28 mph 1016.9mb 21f
10:15pm 17 23 mph 1016.9mb 21f
10:04pm 13 24 mph 1016.9mb 21f
9:55pm 15
mph
1016.9mb 21f
9:50pm 12 20 mph 1016.9mb 21f
9:17pm 21 30 mph 1016.9mb 21f
8:55pm 14 23 mph 1016.9mb 21f
8:47pm 13 24 mph 1016.9mb 21f
8:29pm 15 29 mph 1016.9mb 21f
8:23pm 16 29 mph 1016.9mb 21f
8:02pm 17 25 mph 1016.6mb 21f
7:55pm 14 23 mph 1016.6mb 19f
7:52pm 16 23 mph 1016.9mb 19f
7:32pm 14 24 mph 1016.6mb 19f
7:23pm 16 23 mph 1016.6mb 21f
7:07pm 18
mph
1016.6mb 21f
7:03pm 18
mph
1016.6mb 21f
6:55pm 14 27 mph 1016.3mb 21f
6:51pm 20 27 mph 1016.3mb 21f
6:24pm 17 29 mph 1016.3mb 21f
5:55pm 12 21 mph 1015.9mb 21f
5:10pm 17 25 mph 1015.6mb 21f
4:55pm 15 29 mph 1015.2mb 21f
3:55pm 16 25 mph 1014.6mb 21f
3:30pm 14 27 mph 1014.6mb 21f
3:25pm 20 27 mph 1014.6mb 21f
2:55pm 14 25 mph 1014.2mb 21f
2:07pm 16 24 mph 1013.9mb 21f
2:05pm 18 23 mph 1013.9mb 21f
1:55pm 15 25 mph 1013.9mb 21f
1:20pm 13 20 mph 1013.2mb 23f
1:18pm 10
mph
1013.2mb 23f
1:02pm 9
mph
1013.2mb 21f
12:55pm 15 21 mph 1013.5mb 21f
12:27pm 14
mph
1013.2mb 21f
12:19pm 12 21 mph 1013.2mb 21f
12:06pm 14 21 mph 1013.2mb 21f
11:55am 13
mph
1013.2mb 21f
10:55am 16 25 mph 1013.2mb 21f
10:29am 18 24 mph 1013.2mb 21f
10:13am 20 28 mph 1013.2mb 19f
9:55am 15
mph
1012.9mb 19f
9:25am 22 31 mph 1012.5mb 19f
8:55am 17 27 mph 1012.2mb 19f
8:11am 22 29 mph 1011.9mb 19f
8:06am 17 27 mph 1011.5mb 19f
7:55am 23 32 mph 1011.5mb 19f
7:51am 21 33 mph 1011.5mb 19f
7:46am 23 33 mph 1011.5mb 21f
7:34am 18 31 mph 1011.2mb 21f
7:28am 21 30 mph 1011.2mb 21f
7:03am 20 32 mph 1010.5mb 19f
6:55am 17 27 mph 1010.5mb 21f
5:55am 21 30 mph 1009.5mb 21f
5:11am 24 32 mph 1009.1mb 21f
4:58am 24 37 mph 1009.1mb 19f
4:55am 25 37 mph 1009.1mb 19f
4:50am 21 30 mph 1009.1mb 19f
3:55am 21 35 mph 1008.5mb 19f
3:13am 20 27 mph 1008.1mb 19f
2:55am 21 31 mph 1008.1mb 19f
2:36am 21 30 mph 1008.1mb 20f
2:22am 21 37 mph 1008.1mb 19f
2:02am 21 28 mph 1008.1mb 19f
1:55am 17 31 mph 1008.1mb 19f
1:36am 20 33 mph 1007.8mb 20f
1:17am 17 30 mph 1007.8mb 19f
1:02am 22 31 mph 1007.8mb 19f
12:55am 23 32 mph 1007.8mb 19f
12:29am 20 32 mph 1007.8mb 19f
12:08am 21 28 mph 1008.1mb 19f
Mon 11/17 11:55pm 23 30 mph 1008.1mb 19f
11:18pm 21 28 mph 1008.5mb 19f
11:08pm 21 31 mph 1008.1mb 19f
11:05pm 18 31 mph 1008.1mb 19f
10:55pm 21 27 mph 1008.5mb 18f
10:50pm 18 32 mph 1008.5mb 18f
10:16pm 20 29 mph 1008.5mb 18f
10:07pm 17 33 mph 1008.5mb 18f
9:55pm 22 32 mph 1008.8mb 18f
9:28pm 18 30 mph 1008.8mb 18f
9:16pm 20 28 mph 1008.8mb 18f
9:09pm 21 35 mph 1008.5mb 18f
8:55pm 22 30 mph 1008.5mb 18f
8:21pm 20 35 mph 1008.5mb 19f
8:09pm 23 37 mph 1008.1mb 18f
8:04pm 21 32 mph 1008.1mb 18f
7:55pm 23 36 mph 1008.5mb 18f
7:49pm 24 36 mph 1008.5mb 18f
7:33pm 24 31 mph 1008.1mb 19f
7:20pm 22 35 mph 1008.1mb 19f
7:02pm 21 30 mph 1008.1mb 19f
6:55pm 18 27 mph 1008.1mb 19f
6:11pm 22 30 mph 1008.5mb 19f